Abingdon, VA

5:10 AM EST on December 16, 2017 (GMT -0500)
Virginia Highlands

Weather History for KVJI - October, 2013

Change the Weather History Date:

Saturday, October 19, 2013

  Actual Average (KTRI) Record (KTRI)
Temperature  
Mean Temperature 54 °F -  
Max Temperature 61 °F 66 °F 86 °F (2016)
Min Temperature 47 °F 41 °F 24 °F (1948)
Degree Days  
Heating Degree Days 10    
Growing Degree Days 4 (Base 50)    
Moisture  
Dew Point 51 °F    
Average Humidity 90    
Maximum Humidity 100    
Minimum Humidity 68    
Precipitation  
Precipitation 0.00 in - - ()
Sea Level Pressure  
Sea Level Pressure 29.95 in    
Wind  
Wind Speed 2 mph (WNW)    
Max Wind Speed 14 mph    
Max Gust Speed 20 mph    
Visibility 9 miles    
Events      
Averages and records for this station are not official NWS values.
T = Trace of Precipitation, MM = Missing Value Source: NWS Daily Summary

Daily Weather History Graph

Daily Weather History Graph

Search for Another Location

Airport or City:

Trip Planner

Search our weather history database for the weather conditions in past years. The results will help you decide how hot, cold, wet, or windy it might be!

Date:

Astronomy

Oct. 19, 2013 Rise Set
Actual Time 7:39 AM EDT 6:46 PM EDT
Civil Twilight 7:13 AM EDT 7:12 PM EDT
Nautical Twilight 6:43 AM EDT 7:42 PM EDT
Astronomical Twilight 6:13 AM EDT 8:12 PM EDT
Moon 7:15 PM EDT (10/19) 8:14 AM EDT (10/19)
Length of Visible Light 11h 59m
Length of Day
11h 06m
Waxing Gibbous, 99% of the Moon is Illuminated
Oct 19
Waxing Gibbous
Oct 26
Last Quarter
Nov 3
New
Nov 10
First Quarter
Nov 17
Full

Hourly Weather History & Observations

Time (EDT) Temp. Dew Point Humidity Pressure Visibility Wind Dir Wind Speed Gust Speed Precip Events Conditions
12:15 AM 51.8 °F 50.9 °F 97% 30.00 in 10.0 mi East 3.5 mph - N/A   Overcast
12:35 AM 51.4 °F 50.5 °F 97% 30.00 in 10.0 mi Calm Calm - N/A   Overcast
12:55 AM 52.0 °F 50.7 °F 95% 29.99 in 10.0 mi Calm Calm - N/A   Mostly Cloudy
1:15 AM 51.4 °F 50.4 °F 96% 29.99 in 10.0 mi Calm Calm - N/A   Mostly Cloudy
1:35 AM 51.3 °F 50.4 °F 97% 29.99 in 10.0 mi Calm Calm - N/A   Mostly Cloudy
1:55 AM 51.3 °F 50.5 °F 97% 29.99 in 10.0 mi Calm Calm - N/A   Mostly Cloudy
2:15 AM 51.3 °F 50.5 °F 97% 29.98 in 10.0 mi Calm Calm - N/A   Scattered Clouds
2:35 AM 50.7 °F 50.5 °F 99% 29.98 in 10.0 mi Calm Calm - N/A   Scattered Clouds
2:55 AM 50.7 °F 50.7 °F 100% 29.98 in 10.0 mi Calm Calm - N/A   Mostly Cloudy
3:15 AM 50.9 °F 50.9 °F 100% 29.97 in 10.0 mi Calm Calm - N/A   Overcast
3:35 AM 51.1 °F 50.9 °F 99% 29.96 in 10.0 mi Calm Calm - N/A   Overcast
3:55 AM 50.9 °F 50.9 °F 100% 29.95 in 10.0 mi Calm Calm - N/A   Scattered Clouds
4:15 AM 50.4 °F 50.4 °F 100% 29.95 in 10.0 mi Calm Calm - N/A   Scattered Clouds
4:35 AM 50.7 °F 50.4 °F 99% 29.95 in 10.0 mi Calm Calm - N/A   Mostly Cloudy
4:55 AM 50.4 °F 50.4 °F 100% 29.95 in 10.0 mi Calm Calm - N/A   Overcast
5:15 AM 50.4 °F 50.4 °F 100% 29.95 in 10.0 mi Calm Calm - N/A   Overcast
5:35 AM 50.4 °F 50.4 °F 100% 29.95 in 10.0 mi Calm Calm - N/A   Overcast
5:55 AM 50.9 °F 50.9 °F 100% 29.94 in 10.0 mi Calm Calm - N/A   Overcast
6:15 AM 50.4 °F 50.4 °F 100% 29.95 in 10.0 mi Calm Calm - N/A   Overcast
6:35 AM 50.4 °F 50.4 °F 100% 29.95 in 10.0 mi Calm Calm - N/A   Overcast
6:55 AM 50.4 °F 50.4 °F 100% 29.96 in 10.0 mi Calm Calm - N/A   Mostly Cloudy
7:15 AM 49.8 °F 49.8 °F 100% 29.95 in 7.0 mi Calm Calm - N/A   Mostly Cloudy
7:35 AM 49.3 °F 49.3 °F 100% 29.95 in 7.0 mi Calm Calm - N/A   Mostly Cloudy
7:55 AM 49.5 °F 49.5 °F 100% 29.94 in 7.0 mi Calm Calm - N/A   Mostly Cloudy
8:15 AM 50.0 °F 50.0 °F 100% 29.95 in 5.0 mi Calm Calm - N/A   Mostly Cloudy
8:35 AM 50.0 °F 50.0 °F 100% 29.95 in 7.0 mi Calm Calm - N/A   Mostly Cloudy
8:55 AM 50.4 °F 50.4 °F 100% 29.95 in 5.0 mi Calm Calm - N/A   Scattered Clouds
9:15 AM 51.4 °F 51.4 °F 100% 29.96 in 1.8 mi Calm Calm - N/A   Mostly Cloudy
9:35 AM 51.8 °F 51.8 °F 100% 29.96 in 4.0 mi Calm Calm - N/A   Light Drizzle
9:55 AM 52.3 °F 52.3 °F 100% 29.96 in 7.0 mi Calm Calm - N/A   Overcast
10:15 AM 52.9 °F 52.7 °F 99% 29.94 in 10.0 mi Calm Calm - N/A   Mostly Cloudy
10:35 AM 54.0 °F 53.2 °F 97% 29.94 in 10.0 mi Calm Calm - N/A   Mostly Cloudy
10:55 AM 55.4 °F 53.2 °F 92% 29.93 in 10.0 mi Calm Calm - N/A   Scattered Clouds
11:15 AM 56.5 °F 52.0 °F 85% 29.93 in 10.0 mi Calm Calm - N/A   Mostly Cloudy
11:35 AM 57.6 °F 53.1 °F 85% 29.93 in 10.0 mi Calm Calm - N/A   Mostly Cloudy
11:55 AM 58.5 °F 53.6 °F 84% 29.93 in 10.0 mi West 4.6 mph - N/A   Mostly Cloudy
12:15 PM 59.0 °F 53.8 °F 83% 29.91 in 10.0 mi Calm Calm - N/A   Scattered Clouds
12:35 PM 59.0 °F 53.2 °F 81% 29.92 in 10.0 mi West 6.9 mph - N/A   Clear
12:55 PM 59.4 °F 52.9 °F 79% 29.92 in 10.0 mi WNW 9.2 mph - N/A   Clear
2:55 PM 59.2 °F 51.1 °F 74% 29.92 in 10.0 mi West 11.5 mph 19.6 mph N/A   Overcast
3:15 PM 59.0 °F 51.4 °F 76% 29.91 in 10.0 mi WNW 8.1 mph - N/A   Overcast
3:35 PM 59.5 °F 50.9 °F 73% 29.91 in 10.0 mi West 13.8 mph 17.3 mph N/A   Overcast
3:55 PM 60.4 °F 51.3 °F 72% 29.91 in 10.0 mi WNW 10.4 mph - N/A   Overcast
4:15 PM 61.3 °F 50.7 °F 68% 29.91 in 10.0 mi West 11.5 mph 18.4 mph N/A   Mostly Cloudy
4:35 PM 60.4 °F 51.1 °F 71% 29.92 in 10.0 mi West 9.2 mph - N/A   Mostly Cloudy
4:55 PM 60.4 °F 50.2 °F 69% 29.92 in 10.0 mi West 10.4 mph 17.3 mph N/A   Overcast
5:15 PM 60.6 °F 50.2 °F 68% 29.92 in 10.0 mi West 12.7 mph - N/A   Overcast
5:35 PM 59.9 °F 50.0 °F 70% 29.92 in 10.0 mi West 8.1 mph - N/A   Overcast
5:55 PM 59.4 °F 50.5 °F 73% 29.92 in 10.0 mi West 8.1 mph - N/A   Overcast
6:15 PM 59.0 °F 50.9 °F 74% 29.93 in 10.0 mi WNW 5.8 mph - N/A   Overcast
6:35 PM 58.5 °F 51.1 °F 76% 29.93 in 10.0 mi WNW 6.9 mph - N/A   Overcast
6:55 PM 58.3 °F 51.3 °F 77% 29.94 in 10.0 mi NW 4.6 mph - N/A   Overcast
7:15 PM 58.1 °F 51.4 °F 78% 29.95 in 10.0 mi NW 10.4 mph 16.1 mph N/A   Overcast
7:35 PM 57.0 °F 51.1 °F 81% 29.95 in 10.0 mi NW 6.9 mph - N/A   Overcast
7:55 PM 56.3 °F 50.4 °F 80% 29.95 in 10.0 mi NW 9.2 mph 16.1 mph N/A   Mostly Cloudy
8:15 PM 55.4 °F 50.0 °F 82% 29.96 in 10.0 mi WNW 6.9 mph - N/A   Clear
8:35 PM 54.0 °F 50.0 °F 86% 29.97 in 10.0 mi West 5.8 mph - N/A   Scattered Clouds
8:55 PM 52.7 °F 49.6 °F 89% 29.97 in 10.0 mi West 3.5 mph - N/A   Scattered Clouds
9:15 PM 52.0 °F 49.6 °F 92% 29.97 in 10.0 mi West 3.5 mph - N/A   Clear
9:35 PM 51.1 °F 49.3 °F 94% 29.97 in 10.0 mi WNW 5.8 mph - N/A   Clear
9:55 PM 51.3 °F 49.1 °F 92% 29.98 in 10.0 mi WNW 5.8 mph - N/A   Scattered Clouds
10:15 PM 51.6 °F 49.3 °F 92% 29.98 in 10.0 mi NW 4.6 mph - N/A   Mostly Cloudy
10:35 PM 51.4 °F 48.7 °F 90% 29.99 in 10.0 mi NNW 5.8 mph - N/A   Overcast
10:55 PM 50.4 °F 46.8 °F 87% 30.00 in 10.0 mi NNW 5.8 mph - N/A   Scattered Clouds
11:15 PM 49.1 °F 45.3 °F 87% 30.00 in 10.0 mi NNW 9.2 mph - N/A   Clear
11:35 PM 48.2 °F 44.2 °F 86% 30.01 in 10.0 mi North 6.9 mph - N/A   Scattered Clouds
11:55 PM 47.7 °F 43.9 °F 87% 30.01 in 10.0 mi NNW 3.5 mph - N/A   Scattered Clouds